Regional Weather Roundup
Issued by NWS Wakefield, VA

Home | Current Version | Previous Version | Graphics & Text | Print | Product List | Glossary On
Versions: 1 2 3 4 5 6 7 8 9 10 11 12 13 14 15 16 17 18 19 20 21 22 23 24 25 26 27
000
ASUS41 KAKQ 230715
RWRAKQ

REGIONAL WEATHER ROUNDUP
NATIONAL WEATHER SERVICE WAKEFIELD VA
300 AM EDT TUE MAY 23 2017

Note: "fair" indicates few or no clouds below 12,000 feet with no
significant weather and/or obstructions to visibility. * = Denotes
station may not report precipitation (e.g., rain,snow,etc.),
thunder or fog.

VAZ042-051-052>054-056-230800-
NORTHERN VIRGINIA

CITY           SKY/WX    TMP DP  RH WIND       PRES   REMARKS
WASH NATIONAL  MOCLDY    64  62  93 NW7       29.95S
DULLES         MOCLDY    58  50  75 NW5       29.96S
FORT BELVOIR   CLOUDY    61  58  91 NW5       29.94F
QUANTICO       CLOUDY    64  55  72 N9        29.95F
FREDERICKSBRG* CLOUDY    64  62  90 NW7       29.94S
STAFFORD*      MOCLDY    62  57  84 N8        29.99S
WARRENTON      CLOUDY    61  54  76 CALM      29.96S
CULPEPER*      CLOUDY    62  56  82 CALM      29.97S
MANASSAS*        N/A     60  53  77 N8        29.96F
LEESBURG*      CLOUDY    61  52  72 N5        29.97S
WINCHESTER     CLOUDY    50  48  93 CALM      29.98S
FRONT ROYAL*   CLOUDY    52  52 100 CALM      29.97S
LURAY*         CLOUDY    54  52  94 CALM      29.98S
$$

VAZ048-049-060>072-079>083-230800-
CENTRAL AND SOUTH CENTRAL VIRGINIA

CITY           SKY/WX    TMP DP  RH WIND       PRES   REMARKS
RICHMOND       CLOUDY    65  65 100 NE3       29.93S FOG
CHESTERFIELD*  PTSUNNY  N/A N/A N/A CALM      29.94F
PETERSBURG*    CLOUDY    61  60  97 CALM      29.93F FOG
HANOVER        CLOUDY    65  62  90 N3        29.94F FOG
TAPPAHANNOCK*  FOG       65  65 100 CALM      29.94S VSB<1/4
QUINTON*       FOG       62  62 100 CALM      29.93S VSB 1/4
CHARLOTTSVILLE CLOUDY    65  60  84 E6        29.95S
GORDONSVILLE*  CLOUDY    63  59  87 CALM      29.95S
ORANGE*        CLOUDY    63  54  72 NE5       29.95F
LOUISA*        CLOUDY    68  63  83 NE5       29.94F
BUMPASS*       CLOUDY    64  64 100 N5        29.95S
FARMVILLE*     CLOUDY    67  67 100 CALM      29.92F FOG
CREWE*         CLOUDY    63  59  87 CALM      29.92F VSB 1/2
FORT PICKETT*  PTSUNNY   65  62  88 CALM      29.93F
CHASE CITY*    CLOUDY    67  65  95 CALM      29.92F
CLARKSVILLE*   PTSUNNY   66  66 100 SW3       29.91F
SOUTH HILL*    CLOUDY    65  65 100 CALM      29.98F
LAWRENCEVILLE* FAIR      65  64  96 CALM      29.92F
EMPORIA*       CLOUDY    63  63 100 CALM      29.93F FOG
$$

VAZ088>098-230800-
SOUTHEAST VIRGINIA

CITY           SKY/WX    TMP DP  RH WIND       PRES   REMARKS
NORFOLK        MOCLDY    66  65  96 CALM      29.92F
VIRGINIA BEACH MOCLDY    64  62  93 CALM      29.91F
NORFOLK NAVAL  MOCLDY    66  63  90 CALM      29.93F FOG
WEST POINT*    CLOUDY    63  63  99 CALM      29.94S VSB 1/4
SALUDA*        CLOUDY    64  64 100 CALM      29.92F
NEWPORT NEWS   CLOUDY    64  63  96 CALM      29.92S
LANGLEY AFB    CLOUDY    64  64 100 CALM      29.92R
FORT EUSTIS    CLOUDY    65  63  94 CALM      29.90S
WILLIAMSBURG*  CLOUDY    66  66 100 CALM      29.93F
HR EXEC AP*    CLOUDY    61  59  94 CALM      29.91S VSB 1/2
FRANKLIN*      CLOUDY    64  63  98 CALM      29.92F
US460-WAKEFLD  CLOUDY    64  64 100 CALM      29.92F FOG
$$

VAZ020-022-025-037-045-230800-
WEST CENTRAL AND SOUTHWEST VIRGINIA

CITY           SKY/WX    TMP DP  RH WIND       PRES   REMARKS
STAUNTON*      PTCLDY    56  51  82 CALM      29.99F
WAYNESBORO*    CLOUDY    56  54  95 CALM      29.98F
HOT SPRINGS VA CLOUDY    55  39  54 CALM      30.02F
LYNCHBURG      CLOUDY    60  57  89 CALM      29.95F
DANVILLE       CLOUDY    68  67  96 VRB3      29.93F
SOUTH BOSTON*  CLOUDY    67  66  96 CALM      29.92F
MARTINSVILLE   RAIN      62  61  97 CALM      29.96F
ROANOKE        CLOUDY    59  56  89 W3        29.97F
BLACKSBURG     CLOUDY    58  56  91 CALM      30.00F
DUBLIN*        CLOUDY    59  52  76 CALM      29.98F
MARION*        CLOUDY    57  55  90 CALM      30.01S
HILLSVILLE*    CLOUDY    59  56  92 CALM      29.98S
RICHLANDS*     FAIR      57  53  87 CALM      29.97F
WISE*          CLOUDY    55  55 100 CALM      29.98F
ABINGDON*      CLOUDY    63  58  83 CALM      29.95F
$$

MDZ021>025-VAZ099-100-230800-
SOUTHERN MARYLAND AND THE DELMARVA PENINSULA

CITY           SKY/WX    TMP DP  RH WIND       PRES   REMARKS
PATUXENT RIVER CLOUDY    64  64 100 N8        29.92F
BAY BRIDGE APT FOG       61  61 100 CALM      29.93F VSB 1/4
LEONARDTOWN    CLOUDY    61  61 100 CALM      29.94F
DOVER          PTCLDY    61  61 100 CALM      29.92S FOG
GEORGETOWN     CLOUDY    65  62  90 VRB6      29.93F
EASTON         FOG       61  60  94 CALM      29.95F VSB 1/2
CAMBRIDGE      NOT AVBL
SALISBURY      CLOUDY    64  64 100 NW9       29.92S
OCEAN CITY     CLOUDY    64  63  96 N12       29.92S FOG
WALLOPS ISLAND CLOUDY    65  65 100 NW5       29.92R
ACCOMACK*      CLOUDY    67  52  59 NW7       29.92R
$$

NCZ012>017-030>032-230800-
NORTH CENTRAL AND EASTERN NORTH CAROLINA

CITY           SKY/WX    TMP DP  RH WIND       PRES   REMARKS
ROANOKE RAPIDS PTSUNNY   64  64 100 CALM      29.92F
RALEIGH        CLOUDY    68  67  96 CALM      29.91F
ELIZABETH CITY CLOUDY    68  68 100 W3        29.92F
AHOSKIE*         N/A     65  65  98 CALM      29.91F
EDENTON*       CLOUDY    71  69  92 CALM      29.93S
CURRITUCK*     CLOUDY   N/A N/A N/A CALM      29.92F
KILL DEVIL HLS NOT AVBL
MANTEO         CLOUDY    70  68  95 W6        29.92F
CAPE HATTERAS  CLOUDY    73  69  87 SW10      29.92F
TARBORO*       NOT AVBL
GOLDSBORO      CLOUDY    68  68 100 CALM      29.89S
WASHINGTON     CLOUDY    68  67  96 CALM      29.92F
GREENVILLE     CLOUDY    68  68 100 CALM      29.93F
NEW BERN       CLOUDY    67  67 100 CALM      29.91F
WILMINGTON     CLOUDY    68  67  96 E3        29.90F
$$

VAZ048-230800-
ELSEWHERE

CITY           SKY/WX    TMP DP  RH WIND       PRES   REMARKS
HARRISBURG PA  FOG       56  56 100 CALM      29.95F VSB 1/8
BALTIMORE      FOG       59  59 100 NW5       29.94S VSB 1/4
ANNAPOLIS      CLOUDY    63  63 100 NW3       29.92F FOG
ANDREWS AFB    CLOUDY    61  61 100 N7        29.93F
PHILADELPHIA   CLOUDY    62  59  90 N6        29.93F
HENDERSON NC   LGT RAIN  65  64  96 SW5       29.92F
GREENSBORO     LGT RAIN  66  66 100 E7        29.90F
ROCKY MOUNT    CLOUDY    68  68 100 CALM      29.90F
$$

VAZ100-230800-
MARINE

STATION/POSITION TIME  TEMP    WIND        PRES    WAVE   SWELL
                       AIR SEA DIR/SP/G            HT/PER HT/PER
                 (UTC) (F)     (DEG/KT/KT) (MB)    (FT/S) (FT/S)
CAPE MAY NJ      0648      61  320/  1/  4 1012.6F
LEWES DE         0642      61  340/ 13/ 17 1012.9F
15NM E FENWICK I 0550   58 57  350/  8/ 10 1013.0    3/ 5   2/ 5
OCEAN-CITY-INLET 0642      63  360/ 11/ 15 1013.2F
WACHAPREAGUE VA  0648      68   CALM  /  3 1012.6S
THOMAS POINT MD  0700   63 65  360/  6/  7   N/A
GOOSES REEF MD   0650   64      30/ 10/ 12 1013.9F
COVE POINT MD    0648           30/  7/ 10 1013.9F
SOLOMONS ISLAND  0642      67  360/  3/  4   N/A
BISHOPS HEAD MD  0648      68  360/  6/ 10 1013.5F
PINEY POINT MD   0642           90/  3/  4   N/A
POTOMAC MD       0650   64     360/  6/  8 1012.4F
CAMBRIDGE MD     0642      69                N/A
LEWISETTA VA     0642      69  340/  2/  3 1013.3F
RAPPAHANNOCK LGT 0648          340/ 11/ 12 1013.7F
STINGRAY PT      0650   64      30/  2/  6 1013.2F
YORK RVR RNG VA  0648          340/  6/  7 1012.5F
YORKTOWN VA      0648      69  330/  5/  6 1012.8F
JAMESTOWN VA     0650   66      20/  2/  4   N/A
DOMINION TERM VA 0648           70/  1/  2 1013.1F
KIPTOPEKE VA     0648      66  310/  5/  7   N/A
CHES BAY BRIDGE  0648      68  300/  2/  3 1012.8F
CAPE HENRY VA    0648          290/  2/  2   N/A
WILLOUBY STN VA  0648           CALM  /  1 1012.8F
S CRANEY ISL VA  0648           CALM  /  1 1012.8F
CAPE HENRY BUOY  0642      64                N/A     3/ 8
1ST LANDING BUOY 0650   68                 1013.2F
CAPE CHARLES BUO 0651      62                N/A     2/ 8
64NM E OF VA BCH 0650   65 65  290/  6/  8 1013.4F   4/ 8   3/ 8
DUCK PIER NC     0648      65  270/  6/  8 1012.4F
44100 DUCK FRF   0635      66                N/A     3/ 7
44056 DUCK FRF   0630      65                N/A     2/ 8
OREGON INLET NC  0642      74  210/ 12/ 16 1012.6F
HATTERAS NC      0648      75  200/  9/ 14 1012.7F
DIAMOND SHLS NC  0650   74 78  190/ 17/ 19 1013.2F   4/ 5   2/ 8
CAPE LOOKOUT NC  0600   72     240/  5/  7 1013.6F
$$




USA.gov is the U.S. government's official web portal to all federal, state and local government web resources and services.